Flag for Kazakhstan Weather past 2 weeks in Shymkent, Kazakhstan

Now
54 °F

Overcast.


Feels Like: 54 °F
Forecast: 44 / 73 °F
Wind: 1 mph from Southeast

Location: Shymkent Airport

Current Time: Apr 18, 2015 at 10:19:40 PM

Latest Report: Apr 18, 2015 at 9:30 PM


Visibility: N/A

Pressure: 30.07 "Hg

Humidity: 77%

Dew point: 46 °F

Location of ShymkentLocation

Historic Weather in Shymkent — Graph

°F

Shymkent temperature yesterday

Maximum temperature yesterday: 70 °F (at 4:00 PM)
Minimum temperature yesterday: 46 °F (at 2:00 AM)
Average temperature yesterday: 57 °F

Past Weeks' High & Low Weather Summary

 TemperatureHumidityPressure
High84 °F (Apr 12, 1:00 PM)100% (Apr 7, 4:30 AM)30.27 "Hg (Apr 7, 4:30 AM)
Low43 °F (Apr 4, 3:30 AM)12% (Apr 12, 12:00 PM)29.74 "Hg (Apr 14, 8:30 AM)
Average60 °F58%30.04 "Hg
* Reported Apr 3 9:00 PM — Apr 18 9:00 PM, Shymkent, Weather by CustomWeather, © 2015

Note: Actual official high and low records may vary slightly from our data, if they occured in-between our weather recording intervals... More about our weather records

Advertising

Shymkent weather history for previous 24 hours

 ConditionsComfort  
Time TempWeatherWind HumidityBarometerVisibility
9:00 PM
Sat, Apr 18
55 °FMostly cloudy.3 mph72%30.07 "HgN/A
8:30 PM57 °FMostly cloudy.3 mph63%30.04 "HgN/A
8:00 PM59 °FMore clouds than sun.3 mph55%30.04 "HgN/A
7:30 PM61 °FMore clouds than sun.1 mph48%30.04 "HgN/A
7:00 PM63 °FMore clouds than sun.3 mph45%30.04 "HgN/A
6:30 PM64 °FMore clouds than sun.6 mph43%30.04 "HgN/A
6:00 PM64 °FMore clouds than sun.3 mph43%30.04 "HgN/A
5:30 PM64 °FMore clouds than sun.6 mph46%30.04 "HgN/A
5:00 PM64 °FMore clouds than sun.6 mph46%30.04 "HgN/A
4:30 PM64 °FMostly cloudy.3 mph52%30.04 "HgN/A
4:00 PM63 °FMostly cloudy.6 mph52%30.04 "HgN/A
3:30 PM63 °FMostly cloudy.6 mph52%30.04 "HgN/A
3:00 PM61 °FMostly cloudy.6 mph59%30.07 "HgN/A
2:30 PM61 °FMostly cloudy.6 mph59%30.07 "HgN/A
2:00 PM61 °FMostly cloudy.6 mph55%30.07 "HgN/A
1:30 PM61 °FMostly cloudy.6 mph55%30.07 "HgN/A
1:00 PM63 °FMostly cloudy.3 mph56%30.07 "HgN/A
12:30 PM61 °FMostly cloudy.1 mph59%30.07 "HgN/A
12:00 PM61 °FMostly cloudy.1 mph63%30.07 "HgN/A
11:30 AM61 °FMostly cloudy.1 mph59%30.07 "HgN/A
11:00 AM59 °FMostly cloudy.1 mph59%30.07 "HgN/A
10:30 AM57 °FMostly cloudy.1 mph67%30.07 "HgN/A
10:00 AM57 °FLow clouds.1 mph72%30.07 "HgN/A
9:30 AM54 °FLow clouds.1 mph77%30.07 "HgN/A
9:00 AM50 °FOvercast.3 mph88%30.07 "HgN/A
8:30 AM48 °FOvercast.3 mph100%30.07 "HgN/A
8:00 AM48 °FSunny.3 mph100%30.04 "Hg10 mi
7:30 AM46 °FSunny.1 mph100%30.04 "Hg10 mi
7:00 AM45 °FPassing clouds.3 mph100%30.01 "HgN/A
6:30 AM46 °FClear.3 mph87%30.01 "Hg10 mi
6:00 AM46 °FClear.3 mph100%30.01 "Hg10 mi
5:30 AM46 °FClear.3 mph93%30.01 "Hg10 mi
5:00 AM46 °FClear.6 mph87%29.98 "Hg10 mi
4:30 AM48 °FClear.3 mph87%29.98 "Hg10 mi
4:00 AM45 °FClear.6 mph93%29.98 "Hg10 mi
3:30 AM48 °FClear.3 mph82%29.98 "Hg10 mi
2:30 AM48 °FClear.8 mph82%29.98 "Hg10 mi
2:00 AM50 °FClear.8 mph82%29.98 "Hg10 mi
1:30 AM52 °FPassing clouds.3 mph72%29.98 "HgN/A
1:00 AM52 °FPassing clouds.6 mph77%29.98 "HgN/A
12:30 AM52 °FPassing clouds.3 mph77%29.98 "HgN/A
12:00 AM52 °FPassing clouds.3 mph77%29.95 "HgN/A
11:30 PM
Fri, Apr 17
52 °FPassing clouds.3 mph77%29.95 "HgN/A
11:00 PM52 °FClear.1 mph77%29.95 "Hg10 mi
10:30 PM54 °FPassing clouds.6 mph72%29.95 "HgN/A
10:00 PM54 °FPassing clouds.13 mph72%29.95 "HgN/A
Weather by CustomWeather, © 2015

See weather overviewHow to use our weather pages